Wetbulb
49.99 50.15 50.03 50.37 50.43 49.10 47.56 43.90 34.60 50.20 49.70 42.10 41.05 38.80 43.92 45.76 48.13 49.31 47.32 46.36 44.30 43.00 41.13 39.61 40.34 40.03 41.63 46.13 44.73 39.01 38.76 35.71 32.62 34.98 38.75 41.53 37.49 35.77 35.22 30.33 28.95 27.69 26.57 28.07
49.85 49.77 49.87 50.18 50.21 49.54 45.41 39.68 39.73 48.35 52.22 38.26 38.38 43.53 45.38 47.27 46.35 46.46 44.88 43.53 45.45 44.30 41.10 37.99 40.88 40.84 44.35 46.16 45.12 40.57 40.49 33.97 27.86 28.35 34.74 38.00 35.65 35.99 36.95 35.03 32.62 30.48 30.61 30.29
49.84 50.00 49.54 49.57 49.61 49.57 46.24 41.54 36.08 45.50 48.43 46.64 42.92 41.93 42.30 43.53 48.50 46.99 46.71 43.18 44.12 41.24 39.29 40.56 39.54 39.96 44.62 46.25 45.26 48.01 44.97 35.24 30.24 26.79 28.32 33.71 32.38 34.53 34.88 32.41 28.47 29.47 31.46 32.93
49.66 49.54 49.55 49.30 49.23 49.55 46.31 42.08 40.63 44.02 39.67 42.88 43.11 42.76 41.54 42.07 41.90 45.84 45.99 42.00 41.94 39.59 35.80 36.59 36.58 39.01 41.78 43.57 45.58 41.35 38.24 31.39 31.74 32.54 35.24 35.08 33.96 33.96 33.57 31.66 31.85 28.69 30.41 33.65
49.06 49.31 49.52 49.35 49.06 49.37 45.26 41.31 42.04 44.04 42.00 43.42 43.06 41.43 40.11 41.88 41.89 41.14 39.89 39.19 40.44 39.57 35.92 36.09 34.60 36.09 37.00 37.72 40.26 37.77 36.17 31.04 31.07 29.51 34.37 33.69 32.35 33.70 33.81 33.38 33.59 32.96 33.43 33.23
49.15 49.25 49.72 49.80 49.19 48.65 44.02 44.70 47.84 43.57 41.08 40.96 40.98 40.37 40.06 39.29 42.64 42.56 43.16 41.36 39.33 37.12 37.40 38.51 38.15 37.80 37.72 39.27 38.14 35.22 33.62 31.98 29.29 26.41 31.55 30.66 26.38 31.05 32.48 32.64 34.13 33.83 29.63 33.84
49.02 49.22 49.85 49.92 49.62 48.95 45.78 45.48 44.83 41.66 37.05 39.83 38.93 41.17 40.65 39.37 40.34 38.22 41.44 42.04 38.40 40.88 41.72 39.28 37.91 36.87 37.09 38.54 36.97 37.61 32.18 29.91 27.40 24.26 26.67 20.03 29.17 36.45 37.12 34.92 37.68 38.60 38.75 39.49
48.66 49.31 49.83 50.07 49.94 49.48 44.41 45.44 44.10 42.27 36.31 38.03 39.82 40.93 38.65 40.61 40.83 39.70 39.89 40.83 41.14 40.72 37.73 31.27 28.99 30.66 32.27 33.90 35.27 35.80 34.66 28.88 27.93 20.60 22.60 27.17 32.06 37.09 36.66 34.52 34.76 41.01 39.03 40.08
48.65 49.09 49.42 49.54 49.57 49.71 42.45 44.30 47.97 45.00 39.65 36.39 40.53 40.33 40.55 36.95 37.73 38.80 39.73 41.86 41.83 40.09 34.61 31.49 25.43 25.69 31.13 32.46 34.03 37.14 35.97 32.88 26.23 29.13 25.34 19.07 30.26 39.54 43.06 39.61 29.39 40.88 40.90 39.46
48.51 49.14 49.64 49.61 49.57 49.60 45.88 43.95 47.59 44.64 39.09 39.39 41.61 39.62 38.11 40.33 36.51 35.96 37.76 38.45 37.62 37.42 31.29 27.44 26.69 27.06 33.18 29.49 29.58 30.96 32.23 29.68 27.09 30.70 27.61 30.79 35.80 40.06 42.95 26.75 28.70 39.57 41.07 40.48
48.46 49.03 49.31 49.54 49.71 49.66 47.00 43.32 46.62 45.02 41.49 41.38 43.82 43.67 41.56 40.85 37.48 34.16 35.84 35.12 36.54 32.53 27.31 28.54 28.17 27.78 28.07 29.17 35.62 34.71 32.11 30.16 30.65 31.80 28.93 25.03 40.60 39.77 34.62 35.51 37.73 40.73 41.25 41.53
48.45 48.79 49.11 49.35 49.27 49.41 47.52 40.42 47.12 47.02 42.67 40.66 42.51 44.98 46.00 45.23 45.25 38.97 36.13 34.71 36.11 35.26 30.38 29.30 29.80 27.28 27.60 27.82 23.98 37.45 32.88 32.34 29.17 31.15 29.87 35.29 39.64 38.54 40.75 40.32 40.16 40.62 39.76 41.02
48.56 48.60 49.10 49.29 49.52 49.20 47.81 42.73 43.83 42.44 36.63 35.41 36.94 37.97 43.08 45.45 45.01 44.68 35.60 36.03 39.24 38.43 37.52 33.36 31.01 27.04 28.66 22.72 26.72 29.59 32.27 36.59 35.68 33.23 34.84 36.28 39.09 41.14 42.16 41.85 40.96 41.23 41.30 41.05
48.65 48.55 49.02 49.49 49.67 49.47 49.06 43.81 45.03 44.07 37.76 34.25 34.17 42.97 40.55 45.05 43.95 43.41 42.28 40.99 40.63 38.97 37.23 33.48 31.26 26.13 30.75 27.15 27.93 28.13 31.21 31.60 30.39 31.44 33.45 35.57 38.31 40.41 41.58 41.67 42.41 42.23 41.50 40.39
49.01 48.96 49.11 49.32 49.61 49.11 45.62 45.82 46.42 46.37 41.76 35.05 33.92 37.75 40.88 43.48 42.20 42.77 42.44 40.76 38.09 35.80 33.48 31.84 28.70 30.87 29.66 28.00 28.37 26.21 31.32 30.05 27.42 26.72 33.02 34.06 35.92 39.74 41.88 41.02 40.25 39.94 39.01 39.31
49.12 49.56 49.41 49.52 49.32 47.59 42.81 40.72 46.11 47.45 46.56 38.91 31.14 36.49 39.09 44.72 44.91 43.19 42.37 41.17 38.63 36.45 33.03 32.75 33.80 36.61 33.02 29.19 25.37 30.40 32.88 35.22 34.66 33.81 37.36 38.87 39.35 40.53 41.95 39.85 39.68 40.15 38.52 37.55
49.02 48.88 49.05 48.92 48.93 41.11 37.64 40.24 44.34 47.93 47.12 38.55 33.10 32.90 42.97 45.45 45.23 43.60 42.48 42.02 39.17 36.67 36.47 34.52 35.54 35.32 36.93 33.93 27.95 31.58 34.19 35.80 37.04 40.20 38.29 38.00 38.53 37.00 38.56 39.68 40.12 39.87 38.04 37.49
48.86 49.00 49.35 49.02 48.13 44.50 37.83 43.81 46.86 47.72 42.09 39.75 31.87 33.33 38.53 45.25 41.12 39.67 42.72 39.65 38.91 36.48 36.40 35.13 32.44 34.23 32.82 28.95 31.68 34.09 37.32 39.52 38.89 39.93 40.04 39.18 41.34 39.93 39.69 39.50 38.09 36.34 35.33 35.10
48.93 48.98 48.66 46.25 44.10 42.00 44.30 49.42 47.76 45.84 41.89 35.08 34.45 31.98 31.60 42.69 40.04 40.62 39.83 39.91 33.42 38.86 34.53 35.04 35.70 34.25 29.47 30.77 32.04 34.58 37.92 39.54 40.45 40.63 40.47 37.87 36.70 37.41 37.39 36.82 35.14 33.85 33.49 33.52
48.31 45.63 41.06 38.01 41.81 47.97 46.81 42.41 39.10 38.02 38.73 38.31 32.32 33.30 34.04 39.12 35.70 34.18 37.12 37.53 32.99 28.42 32.91 37.47 32.96 29.72 33.38 35.17 36.35 36.88 38.63 42.39 41.99 39.09 35.86 37.13 35.96 35.95 36.21 35.17 35.45 34.85 33.79 33.34
44.00 39.49 38.27 42.69 46.80 42.24 38.42 34.70 33.66 35.18 32.51 35.83 35.73 33.35 33.37 40.74 36.34 34.30 37.04 31.21 32.19 24.89 28.17 30.00 30.47 31.22 35.04 42.03 38.89 41.09 40.28 42.60 40.35 38.34 37.14 36.27 36.05 35.47 35.18 34.85 36.01 34.84 34.30 32.71
40.37 41.88 43.67 42.67 39.26 36.17 31.94 31.06 33.78 32.54 29.97 32.65 31.96 33.40 34.64 38.80 39.59 33.86 36.55 29.74 32.21 27.66 34.76 32.40 30.46 35.70 40.99 39.18 36.70 37.37 38.86 37.79 37.81 38.22 36.53 36.25 35.87 34.98 34.41 34.54 34.81 34.20 33.53 33.22
42.83 39.93 36.67 34.76 33.83 26.73 27.55 26.32 29.64 30.29 33.27 34.52 33.39 29.21 35.33 34.60 34.84 31.88 33.21 30.27 29.18 35.96 32.82 30.60 33.05 38.95 39.80 38.06 37.94 37.20 37.46 37.03 36.70 35.99 36.00 36.08 34.82 34.52 34.38 34.64 35.28 34.00 32.87 32.30
38.04 35.16 29.44 30.26 29.33 30.95 31.99 32.23 35.35 38.42 39.73 39.06 38.12 34.15 32.90 31.22 29.92 28.44 26.19 29.14 31.00 29.59 27.02 30.75 35.72 39.14 38.96 39.25 37.95 36.54 35.15 35.21 35.41 35.26 35.14 34.95 33.82 33.82 35.31 35.95 35.69 33.99 32.64 31.53
36.05 35.39 27.70 29.68 34.71 37.08 35.50 36.87 36.56 39.83 40.47 38.98 35.05 35.69 36.06 28.93 30.10 29.97 29.47 30.46 28.06 29.13 30.80 34.81 37.73 38.26 37.85 35.99 36.23 35.41 34.53 34.42 34.09 34.69 34.10 34.66 34.55 34.22 34.34 36.30 35.03 33.89 33.38 31.12
36.82 34.77 31.07 33.71 35.17 35.34 36.89 38.69 38.98 41.33 39.72 40.24 38.39 33.20 30.72 30.14 30.57 31.69 30.82 30.36 28.89 32.34 36.42 36.01 36.60 38.13 35.35 35.24 36.64 36.43 36.06 35.35 34.80 34.98 35.47 36.32 34.17 33.40 33.57 35.49 35.74 33.44 33.32 30.88
34.82 30.18 35.52 35.37 35.50 35.43 38.34 39.03 40.66 41.22 39.13 35.67 36.20 30.90 30.97 34.19 30.97 31.07 34.60 31.99 34.27 34.86 35.04 37.20 36.12 34.84 35.30 36.60 37.25 37.93 37.73 36.80 36.63 35.88 35.65 35.30 35.28 34.55 33.35 31.92 33.86 34.21 33.38 31.87
MSLP
1014.56 1014.09 1013.29 1012.49 1011.83 1011.18 1010.42 1009.77 1008.49 1005.22 1005.05 1005.09 1004.60 1003.93 1002.93 1002.19 1001.82 1001.93 1001.76 1001.63 1002.26 1001.67 1001.93 1002.48 1003.00 1003.55 1003.74 1003.91 1004.30 1005.79 1006.55 1007.27 1008.17 1008.57 1008.69 1008.50 1008.76 1009.63 1010.30 1011.78 1013.24 1013.46 1012.92 1010.95
1014.38 1013.62 1013.18 1012.67 1012.03 1011.47 1010.95 1009.95 1008.51 1005.33 1005.19 1004.69 1004.23 1003.34 1002.46 1001.98 1001.97 1002.04 1002.23 1002.33 1001.94 1001.98 1002.68 1003.57 1003.95 1004.21 1004.70 1004.45 1004.96 1006.32 1007.07 1008.41 1009.37 1009.64 1009.74 1009.49 1009.98 1010.62 1011.28 1011.96 1012.69 1013.14 1012.94 1011.24
1014.64 1013.77 1013.06 1012.78 1012.21 1011.64 1011.33 1010.17 1008.52 1005.90 1005.32 1004.65 1003.98 1003.62 1002.55 1002.12 1001.97 1002.17 1002.73 1002.65 1001.96 1002.77 1004.02 1004.19 1004.73 1005.35 1005.66 1005.46 1006.01 1006.49 1007.09 1009.20 1009.96 1010.44 1010.54 1010.68 1011.02 1011.28 1011.64 1012.35 1013.36 1013.08 1012.24 1011.32
1014.58 1014.00 1013.27 1012.33 1012.24 1011.33 1011.44 1009.85 1008.36 1006.98 1005.97 1004.85 1004.56 1004.31 1003.40 1002.56 1002.55 1002.43 1003.53 1003.54 1002.22 1002.97 1004.58 1004.82 1005.77 1006.02 1006.44 1006.72 1007.14 1007.86 1008.75 1010.40 1010.95 1011.24 1011.19 1011.21 1011.37 1011.54 1011.92 1012.55 1012.73 1012.74 1011.94 1011.45
1014.20 1013.73 1013.23 1012.40 1011.99 1011.14 1010.93 1009.71 1008.59 1007.50 1006.67 1005.96 1004.99 1004.32 1003.97 1003.12 1002.95 1003.21 1003.72 1003.78 1003.38 1003.61 1004.99 1005.35 1006.33 1006.43 1007.12 1007.83 1008.69 1009.52 1010.40 1011.83 1012.05 1012.25 1011.95 1011.78 1011.75 1011.42 1011.65 1012.00 1012.16 1012.20 1011.93 1011.37
1013.96 1013.49 1013.00 1012.39 1011.99 1011.47 1011.06 1010.04 1008.85 1008.33 1007.25 1006.18 1004.99 1005.13 1004.92 1004.38 1003.81 1004.14 1003.72 1004.35 1004.03 1005.01 1006.01 1006.11 1006.64 1007.05 1007.73 1008.25 1009.24 1010.56 1011.47 1012.41 1013.14 1013.46 1013.14 1012.71 1012.11 1010.75 1010.89 1011.20 1011.36 1011.44 1011.60 1010.90
1013.95 1013.43 1012.89 1012.29 1011.95 1011.75 1011.76 1011.04 1010.21 1008.96 1007.90 1007.13 1006.49 1005.77 1005.48 1005.32 1004.58 1004.67 1005.16 1005.14 1005.54 1006.18 1006.23 1006.81 1007.31 1008.22 1008.87 1009.22 1010.10 1010.44 1011.93 1012.92 1013.71 1014.25 1013.70 1012.85 1011.01 1010.33 1010.31 1010.56 1010.75 1010.77 1010.80 1010.70
1013.96 1013.45 1012.85 1012.22 1011.82 1011.63 1011.80 1011.25 1010.76 1009.56 1008.87 1008.19 1007.10 1006.61 1006.60 1006.53 1005.75 1005.94 1006.26 1006.74 1006.84 1006.35 1006.97 1008.15 1008.97 1009.58 1009.97 1010.55 1010.96 1011.28 1011.49 1013.08 1014.49 1014.78 1014.28 1012.69 1010.67 1010.18 1010.15 1010.30 1010.56 1010.40 1010.56 1010.61
1014.01 1013.47 1012.78 1012.27 1011.99 1011.72 1011.63 1011.20 1010.77 1010.11 1009.57 1009.02 1008.45 1007.62 1007.46 1007.63 1007.39 1007.57 1007.35 1007.15 1006.82 1007.04 1008.24 1009.26 1010.10 1010.47 1010.36 1010.92 1011.70 1012.01 1012.29 1012.54 1013.65 1014.60 1014.08 1012.80 1011.00 1010.23 1010.06 1010.21 1010.55 1010.42 1010.53 1010.81
1014.18 1013.48 1012.79 1012.35 1012.00 1011.72 1011.74 1011.44 1010.96 1010.53 1010.11 1009.42 1008.92 1008.57 1008.43 1008.10 1008.35 1008.42 1008.29 1008.16 1008.03 1008.13 1009.70 1010.74 1011.06 1011.21 1010.86 1011.02 1011.41 1012.29 1012.89 1013.47 1013.69 1013.75 1013.44 1012.10 1010.50 1010.19 1010.12 1010.79 1011.22 1010.62 1010.74 1010.89
1014.35 1013.62 1012.95 1012.59 1012.21 1011.82 1011.79 1011.63 1011.17 1011.06 1010.54 1009.88 1009.46 1009.12 1008.90 1008.56 1008.65 1008.93 1009.22 1009.33 1009.32 1009.99 1010.94 1011.57 1011.96 1012.00 1011.95 1011.76 1011.36 1011.47 1012.01 1012.87 1013.14 1013.27 1012.98 1011.88 1010.14 1010.35 1010.57 1010.48 1010.48 1010.49 1010.57 1010.59
1014.29 1013.73 1013.11 1012.72 1012.45 1012.12 1011.88 1011.89 1011.30 1011.14 1011.16 1010.72 1010.16 1009.53 1009.31 1009.10 1009.12 1009.40 1009.67 1009.99 1010.13 1010.61 1011.34 1012.16 1012.47 1012.86 1012.85 1012.68 1012.28 1011.48 1011.85 1011.87 1012.16 1012.07 1011.68 1010.72 1010.29 1010.17 1009.93 1010.19 1010.35 1010.24 1010.34 1010.36
1014.25 1013.70 1013.21 1012.78 1012.47 1012.24 1012.14 1012.18 1011.91 1011.50 1011.53 1011.01 1010.41 1009.64 1009.20 1009.06 1009.12 1009.18 1009.82 1010.13 1010.31 1010.77 1011.13 1012.05 1013.01 1013.43 1013.69 1013.62 1013.17 1012.65 1012.10 1011.92 1012.00 1012.02 1011.02 1010.76 1010.41 1010.05 1009.85 1009.85 1009.89 1009.86 1010.01 1010.27
1014.11 1013.60 1013.12 1012.75 1012.42 1012.31 1012.15 1012.25 1012.01 1011.95 1012.03 1011.79 1010.66 1009.63 1009.47 1009.13 1009.11 1009.29 1009.47 1009.91 1010.46 1010.99 1011.34 1012.32 1013.23 1013.85 1013.89 1014.18 1013.99 1013.53 1012.60 1012.24 1012.06 1011.77 1011.06 1010.52 1010.07 1009.78 1009.59 1009.61 1009.71 1009.86 1010.03 1010.19
1013.92 1013.43 1013.01 1012.84 1012.58 1012.37 1012.25 1012.12 1012.07 1012.02 1012.31 1011.97 1011.23 1010.25 1009.79 1009.36 1009.16 1009.52 1009.83 1010.30 1010.89 1011.75 1012.53 1013.19 1013.90 1013.99 1014.25 1014.56 1014.33 1013.36 1012.23 1011.80 1011.93 1011.72 1010.87 1010.61 1010.15 1009.69 1009.59 1009.82 1009.88 1009.86 1010.07 1010.23
1013.85 1013.37 1013.02 1012.85 1012.62 1012.40 1012.47 1012.23 1012.16 1011.97 1012.01 1012.05 1011.89 1011.12 1010.49 1009.88 1009.70 1010.22 1010.70 1011.00 1011.59 1012.49 1013.25 1013.86 1014.01 1014.08 1014.30 1014.47 1013.96 1012.18 1011.83 1011.38 1011.19 1010.89 1010.52 1010.29 1009.84 1009.66 1009.72 1009.76 1009.77 1010.03 1010.46 1010.92
1013.88 1013.40 1012.99 1012.77 1012.63 1012.86 1012.93 1012.76 1012.44 1012.10 1012.09 1012.23 1012.12 1011.53 1010.90 1010.60 1010.40 1010.99 1011.46 1011.65 1012.31 1012.92 1013.64 1013.86 1013.85 1013.87 1013.79 1013.89 1013.30 1011.61 1011.12 1010.96 1010.71 1010.33 1010.33 1010.05 1009.79 1009.78 1009.77 1009.85 1010.14 1010.49 1011.01 1011.36
1013.67 1013.21 1012.82 1012.69 1012.58 1012.63 1012.69 1012.48 1012.22 1012.11 1012.38 1012.49 1012.48 1011.93 1011.18 1010.92 1010.94 1011.56 1011.95 1012.50 1013.01 1013.52 1013.73 1013.89 1013.89 1013.94 1013.84 1013.52 1011.97 1011.54 1011.03 1010.51 1010.14 1009.85 1009.84 1009.88 1009.79 1009.78 1010.01 1010.33 1010.71 1011.01 1011.37 1011.68
1013.48 1013.04 1012.70 1012.71 1012.87 1012.86 1012.65 1012.35 1012.30 1012.36 1012.90 1012.72 1012.71 1012.37 1011.81 1011.44 1011.50 1011.94 1012.37 1012.61 1013.30 1013.69 1013.66 1013.77 1013.89 1013.57 1013.19 1012.05 1011.66 1011.14 1010.74 1010.30 1010.05 1009.78 1009.67 1009.74 1009.97 1010.22 1010.58 1010.91 1011.22 1011.59 1011.89 1012.12
1013.25 1012.97 1013.00 1013.26 1013.43 1013.17 1012.86 1012.63 1012.71 1012.68 1012.89 1012.93 1012.99 1012.74 1012.31 1011.99 1012.37 1012.61 1012.90 1013.06 1013.49 1013.76 1013.71 1013.55 1013.46 1012.88 1011.73 1011.17 1010.72 1010.43 1010.31 1010.27 1010.03 1010.51 1010.20 1010.22 1010.36 1010.76 1011.09 1011.42 1011.76 1012.06 1012.31 1012.46
1013.63 1013.77 1013.83 1013.72 1013.34 1013.21 1013.21 1013.19 1013.15 1013.17 1013.13 1013.11 1013.05 1012.94 1012.57 1011.93 1012.09 1012.65 1013.05 1013.36 1013.47 1013.59 1013.65 1013.48 1012.90 1012.17 1011.33 1010.53 1009.86 1009.73 1010.07 1010.18 1010.32 1010.48 1010.52 1010.73 1011.04 1011.42 1011.69 1011.85 1012.03 1012.32 1012.62 1012.81
1014.56 1014.44 1014.15 1013.90 1013.71 1013.59 1013.62 1013.34 1013.27 1013.12 1012.89 1012.97 1013.01 1012.91 1012.81 1012.39 1012.20 1012.66 1013.07 1013.24 1013.29 1013.20 1013.28 1013.09 1012.14 1011.36 1011.01 1010.81 1010.63 1010.54 1010.60 1010.71 1010.85 1010.99 1011.27 1011.48 1011.73 1011.95 1012.10 1012.14 1012.29 1012.77 1013.02 1012.97
1014.52 1014.38 1014.31 1014.26 1014.23 1013.96 1013.54 1013.33 1012.99 1012.77 1012.53 1012.56 1012.77 1013.00 1012.77 1012.82 1012.75 1013.20 1013.23 1013.31 1013.21 1012.92 1012.81 1012.05 1011.50 1011.30 1011.26 1011.16 1011.11 1011.27 1011.33 1011.46 1011.63 1011.82 1011.85 1012.03 1012.30 1012.37 1012.38 1012.46 1012.92 1013.18 1013.23 1013.24
1014.71 1014.51 1014.30 1014.26 1013.85 1013.57 1013.39 1013.19 1012.84 1012.50 1012.09 1012.07 1012.48 1012.83 1012.89 1013.18 1013.31 1013.52 1013.59 1013.40 1013.22 1012.70 1012.28 1011.51 1011.38 1011.40 1011.39 1011.52 1011.63 1011.72 1012.15 1012.27 1012.41 1012.49 1012.42 1012.56 1012.71 1012.76 1012.79 1013.07 1013.38 1013.48 1013.42 1013.44
1014.83 1014.75 1014.39 1013.91 1013.51 1013.26 1013.05 1012.88 1012.86 1012.26 1012.10 1012.23 1012.73 1012.96 1013.16 1013.31 1013.39 1013.34 1013.22 1013.04 1012.55 1011.98 1011.53 1011.54 1011.55 1011.48 1011.72 1012.01 1012.12 1012.39 1012.63 1012.82 1012.96 1012.97 1012.98 1013.07 1013.14 1013.13 1013.22 1013.44 1013.75 1013.80 1013.75 1013.71
1014.97 1014.69 1014.47 1014.09 1013.58 1013.10 1012.74 1012.49 1012.21 1012.11 1012.20 1012.33 1012.59 1012.85 1013.00 1013.06 1012.97 1012.86 1012.45 1012.15 1011.47 1011.46 1011.43 1011.51 1011.57 1011.83 1012.23 1012.32 1012.52 1012.82 1013.00 1013.18 1013.32 1013.40 1013.46 1013.50 1013.67 1013.63 1013.64 1013.67 1013.89 1014.16 1014.12 1014.09
1014.96 1014.82 1014.28 1014.11 1013.88 1013.34 1012.84 1012.59 1012.15 1012.08 1012.18 1012.29 1012.42 1012.51 1012.47 1012.62 1012.48 1012.23 1011.78 1011.29 1011.46 1011.54 1011.54 1011.61 1011.78 1012.23 1012.51 1012.71 1012.92 1013.09 1013.30 1013.53 1013.67 1013.87 1013.96 1014.11 1014.18 1014.08 1014.11 1014.10 1014.36 1014.48 1014.60 1014.61
Wind_Speed
20 18 18 16 15 16 6 3 5 4 4 3 3 3 5 8 4 2 3 3 7 1 4 5 4 5 4 3 5 5 1 5 3 3 4 2 2 3 4 6 5 2 4 8
20 18 17 17 16 10 4 6 5 5 2 3 3 4 10 10 6 5 3 2 1 5 4 5 3 5 6 4 5 4 3 3 4 5 5 5 6 3 4 4 3 6 6 6
20 18 17 17 17 12 4 3 5 3 2 3 2 3 5 8 1 4 1 5 6 7 4 5 4 3 7 4 5 13 8 4 4 6 3 3 4 2 2 5 3 3 5 4
19 19 18 16 16 14 3 2 4 2 4 2 3 1 4 3 3 7 6 8 5 7 5 4 4 4 3 8 8 7 5 4 2 2 3 3 4 4 4 6 5 6 4 7
18 18 18 18 15 17 3 3 3 4 3 7 6 1 4 2 4 4 5 4 4 6 5 1 7 7 4 3 6 5 4 3 2 2 2 1 5 7 6 6 5 6 7 13
18 17 18 16 13 9 3 4 3 2 4 7 1 2 4 9 4 8 8 5 11 13 4 5 6 6 5 7 7 4 4 6 3 2 2 3 7 10 9 5 5 6 6 9
18 17 17 14 12 4 2 3 4 3 4 6 7 7 4 15 3 6 5 8 3 2 6 5 7 9 8 7 6 3 6 5 3 2 3 1 4 2 5 7 4 5 3 2
19 19 18 15 14 4 1 2 3 3 3 3 7 9 8 9 9 8 7 4 3 5 6 5 5 5 3 3 3 3 4 5 4 4 2 6 2 2 2 3 5 6 6 3
19 19 16 14 11 9 1 2 3 2 2 3 6 3 5 3 3 4 4 4 4 6 4 4 3 3 3 3 4 5 5 5 7 3 2 5 5 2 2 2 5 4 3 4
19 19 16 14 12 9 2 3 3 2 2 3 5 3 2 1 1 3 1 5 5 4 3 3 3 1 2 3 6 5 4 2 6 3 3 6 6 4 1 5 6 3 3 5
17 18 15 14 14 11 3 3 3 3 2 4 4 5 4 4 4 2 2 2 5 4 5 3 1 2 1 2 2 6 5 6 4 4 3 8 4 2 6 6 2 4 4 5
16 15 15 13 12 12 4 2 3 2 1 3 2 4 2 3 2 2 3 3 2 2 4 1 3 2 2 1 2 3 3 5 5 8 6 4 3 3 4 4 5 4 3 5
14 14 14 13 12 8 4 2 3 3 3 5 4 3 5 1 4 3 4 2 2 2 2 3 2 4 2 2 3 2 1 1 2 2 2 5 6 5 5 5 6 5 5 6
14 11 13 12 11 9 6 2 2 1 1 1 5 3 4 4 1 2 2 4 4 4 3 3 3 3 2 2 2 3 4 1 4 4 5 6 6 6 6 4 5 6 5 4
16 11 11 12 11 10 4 1 1 1 1 2 5 6 3 7 3 5 6 5 5 3 4 4 1 2 3 1 1 4 4 6 5 6 6 4 6 5 4 6 6 5 4 5
15 12 12 11 10 10 2 0 1 4 1 2 4 3 5 5 10 10 7 4 4 4 3 2 1 2 2 1 3 6 4 3 4 4 1 6 9 7 3 3 3 1 4 4
13 13 11 9 7 3 1 1 3 7 0 2 3 3 3 2 3 3 4 4 3 3 2 1 2 1 2 2 4 5 4 4 5 6 3 4 0 3 3 1 1 4 4 4
13 13 9 6 3 2 3 2 3 2 2 2 2 3 1 4 2 2 2 2 2 3 2 1 1 1 1 5 7 8 9 9 7 6 5 4 3 2 3 3 2 4 5 5
12 12 6 1 3 3 2 5 4 2 2 1 1 2 2 3 3 2 2 2 2 1 1 1 2 2 5 6 6 6 4 4 6 5 3 1 3 2 3 3 4 4 5 5
9 3 3 2 2 10 6 3 3 3 2 2 1 1 0 2 2 2 1 1 2 1 2 2 2 4 6 9 10 8 4 3 6 6 3 1 1 2 3 3 2 3 3 5
3 3 2 2 7 2 2 1 2 1 1 1 1 1 1 1 1 2 1 2 2 1 2 2 2 3 4 7 6 2 5 3 1 2 3 5 5 3 3 4 1 3 4 6
2 2 2 2 2 1 2 1 0 1 1 2 2 3 3 2 2 3 0 2 1 1 3 2 2 1 6 3 5 7 6 6 6 5 6 6 6 5 4 5 1 5 6 9
2 1 2 2 1 2 1 2 1 2 1 2 2 1 2 2 4 3 2 1 1 0 2 3 1 2 3 2 5 7 7 8 7 6 5 5 5 6 5 4 7 8 8 8
2 2 4 1 2 2 2 2 2 2 3 2 1 2 2 1 3 2 3 3 1 2 3 2 1 1 1 4 4 7 5 6 6 6 6 6 6 5 6 8 7 7 6 9
2 2 3 2 2 2 3 4 3 2 0 2 2 2 1 2 2 1 1 2 4 4 1 2 3 3 5 5 5 6 5 5 4 5 6 5 7 7 6 5 6 7 7 8
2 2 3 2 3 4 3 2 1 1 2 2 1 2 1 2 2 3 4 3 3 1 1 2 3 5 4 5 6 5 5 5 5 6 6 5 8 6 7 6 5 8 8 8
3 3 2 2 3 4 2 2 1 1 1 1 1 0 2 1 1 3 2 2 1 1 1 2 4 6 6 5 5 5 5 5 5 6 7 6 6 7 7 9 9 7 7 8
Wind_Direction
321 327 329 331 333 336 340 296 308 345 164 155 179 196 201 242 252 38 302 177 214 176 44 76 109 131 104 134 132 96 75 127 126 113 292 251 67 123 119 135 197 140 142 263
329 328 330 332 333 352 327 309 274 299 212 199 207 248 231 239 248 130 313 171 76 13 89 103 92 91 358 57 86 127 165 25 84 9 3 10 73 50 104 108 74 185 175 256
335 336 337 337 334 336 321 287 301 287 212 253 104 355 235 202 229 182 33 318 162 112 40 5 104 91 27 29 79 90 81 79 141 185 159 145 140 168 163 113 125 201 224 255
335 337 332 332 327 333 291 221 267 356 314 302 332 82 300 198 182 113 92 283 67 121 134 69 97 81 92 30 20 51 86 114 91 120 127 136 191 218 200 197 199 183 243 234
336 338 330 331 328 333 238 283 306 335 288 310 250 219 29 260 109 17 159 159 19 64 102 169 166 122 95 156 31 59 24 117 104 71 15 284 269 247 217 228 246 263 267 279
331 335 333 328 332 347 321 321 297 305 321 313 232 39 24 325 140 20 56 92 87 75 93 86 93 76 91 137 129 114 95 128 102 210 17 309 285 232 214 187 195 174 198 233
335 335 333 333 331 355 273 286 310 307 316 348 356 358 73 352 289 126 86 12 32 115 99 89 55 59 68 81 48 101 119 96 74 125 31 258 250 272 210 201 220 190 151 159
343 339 334 342 343 353 288 293 295 314 309 319 8 23 80 4 17 44 75 39 325 118 64 67 59 14 69 62 67 74 113 110 102 123 172 295 290 139 163 160 235 188 177 224
340 337 336 347 349 350 40 276 295 312 313 11 313 348 43 105 28 349 24 9 13 56 78 72 105 165 142 140 113 40 57 86 109 160 183 223 241 228 318 140 281 144 145 222
339 342 346 347 347 355 17 298 328 265 333 312 358 26 338 5 113 93 27 341 26 31 61 82 112 122 346 145 138 147 129 55 174 164 213 272 230 244 20 102 235 183 212 231
342 345 352 1 4 1 14 282 325 347 350 297 356 9 15 356 25 73 296 37 3 41 66 97 143 108 260 83 148 158 158 157 176 161 198 261 163 110 173 210 226 233 239 236
341 344 347 351 352 2 19 327 330 327 259 277 306 273 231 210 124 96 16 154 67 150 95 90 105 75 49 129 203 349 167 183 182 178 211 237 227 200 269 171 218 243 229 264
337 337 337 339 348 353 31 308 315 10 23 321 4 6 345 104 208 176 120 303 166 63 178 139 125 86 116 133 254 318 323 133 210 92 238 220 250 264 245 209 227 258 255 272
328 332 328 341 349 7 6 328 310 18 97 350 291 342 333 319 341 159 149 129 63 93 50 76 104 115 145 201 237 209 208 10 187 260 291 284 265 234 243 273 276 274 306 268
326 329 343 351 354 350 341 279 341 344 340 325 293 309 342 314 165 115 96 98 87 53 50 56 64 56 76 343 307 248 194 195 158 228 244 213 258 302 300 287 290 300 294 320
338 348 333 332 345 356 18 126 28 30 245 360 337 291 332 16 86 77 65 64 66 72 95 93 67 148 95 240 247 259 233 239 184 238 277 236 261 277 277 282 317 47 77 50
327 331 342 332 319 56 87 1 294 341 318 14 322 355 32 352 74 51 47 28 54 82 81 92 131 116 111 237 243 256 310 275 275 267 311 321 202 285 348 113 83 81 84 54
326 321 332 349 37 18 11 306 25 11 66 46 345 290 242 352 98 82 15 77 53 25 115 37 97 43 123 255 260 286 281 283 272 275 196 220 268 88 89 66 50 35 12 356
314 319 320 51 27 353 9 38 50 48 73 346 2 329 335 342 34 73 59 58 83 11 89 227 139 192 231 232 257 278 293 313 333 305 294 39 50 69 44 58 35 22 350 344
325 6 28 28 330 305 316 11 11 15 358 37 314 82 316 119 29 40 91 32 126 153 232 140 198 260 261 257 242 245 262 348 35 345 278 296 318 32 28 36 40 22 349 327
23 9 11 277 310 357 22 23 29 354 340 179 271 184 317 7 79 113 202 149 148 27 245 150 245 253 268 328 358 149 198 165 64 96 77 56 58 55 16 342 16 8 357 341
238 278 287 322 15 350 333 5 240 229 259 185 182 233 205 335 49 93 118 90 120 241 140 230 247 46 19 14 50 65 78 85 63 60 66 63 64 39 3 326 360 52 5 348
295 306 323 8 345 6 302 10 112 274 228 219 176 29 158 2 49 58 81 175 185 69 228 244 156 124 25 98 95 64 57 69 67 51 37 83 62 24 5 16 65 28 10 7
310 322 324 228 238 240 210 250 318 350 272 156 81 58 80 61 66 127 129 218 115 245 236 239 118 111 182 90 79 85 70 69 72 46 35 79 39 19 41 78 51 18 16 11
302 304 278 259 336 323 233 239 249 248 141 88 78 28 51 1 95 228 113 210 223 219 272 122 225 198 122 113 99 99 87 83 64 41 35 82 33 32 39 92 55 29 30 17
288 256 302 344 303 334 353 189 248 143 132 128 127 130 135 196 159 203 217 241 218 129 176 199 153 109 120 120 111 117 105 92 70 46 35 63 46 33 28 42 72 40 25 28
299 286 277 257 277 254 241 252 360 140 103 68 133 218 63 99 231 236 224 310 133 268 129 112 122 146 141 122 117 124 111 87 75 56 48 50 40 36 26 30 34 48 29 31